Regional Weather Roundup
Issued by NWS

Home | Current Version | Previous Version | Text Only | Print | Product List | Glossary Off
Versions: 1 2 3 4 5 6 7 8 9 10 11 12 13 14 15 16 17 18 19 20 21 22 23 24 25 26 27 28 29 30 31 32 33 34 35 36 37 38 39 40 41 42 43 44 45 46 47 48 49 50

000
ASUS43 KMKX 121421
RWRWI

WISCONSIN REGIONAL WEATHER ROUNDUP
NATIONAL WEATHER SERVICE MILWAUKEE/SULLIVAN WI
900 AM CDT SAT JUL 12 2014

NOTE: "FAIR" INDICATES FEW OR NO CLOUDS BELOW 12,000 FEET WITH NO
SIGNIFICANT WEATHER AND/OR OBSTRUCTIONS TO VISIBILITY.

WIZ001-002-006>008-014>016-023>028-121500-
NORTHWEST WISCONSIN

CITY           SKY/WX    TMP DP  RH WIND       PRES   REMARKS
SUPERIOR ARPT  MOSUNNY   69  60  71 CALM      30.01S
ASHLAND        PTSUNNY   71  60  68 N5        30.01S
HAYWARD        PTSUNNY   70  66  87 CALM      30.02S
SIREN          PTSUNNY   68  68  98 CALM      30.01S
RICE LAKE      CLOUDY    69  67  96 CALM      30.03S FOG
LADYSMITH      CLOUDY    69  67  94 CALM      30.04R FOG
EAU CLAIRE     CLOUDY    72  69  90 W5        30.00S
MENOMONIE      CLOUDY    72  69  91 CALM      30.01S
NEW RICHMOND   CLOUDY    70  69  97 CALM      30.01F FOG
OSCEOLA        CLOUDY    71  71 100 CALM      30.03S FOG
$$

WIZ003>005-009-010-017-018-121500-
NORTH CENTRAL WISCONSIN

CITY           SKY/WX    TMP DP  RH WIND       PRES   REMARKS
WOODRUFF       PTSUNNY   72  68  87 W7        30.03S
RHINELANDER    CLOUDY    70  66  87 W5        30.04F
EAGLE RIVER    CLOUDY    69  65  86 W3        30.03S
LAND O LAKES   PTSUNNY   72  64  77 W5        30.03F
PHILLIPS       CLOUDY    69  66  90 CALM      30.03R
TOMAHAWK       CLOUDY    71  66  84 CALM      30.04R
MEDFORD        CLOUDY    69  66  92 NW5       30.04S
MERRILL        CLOUDY    71  67  89 CALM      30.03R
$$

WIZ029-030-035-036-043>047-121500-
CENTRAL WISCONSIN

CITY           SKY/WX    TMP DP  RH WIND       PRES   REMARKS
WAUSAU         CLOUDY    71  66  84 SW5       30.01S
MOSINEE        SUNNY     72  68  88 W3        30.04S
MARSHFIELD     CLOUDY    71  67  87 CALM      30.03R
STEVENS POINT  CLOUDY    69  64  82 CALM      30.04R
WAUPACA        CLOUDY    72  65  79 CALM      30.03S
WAUTOMA        CLOUDY    71  65  81 CALM      30.04S
WISC RAPIDS    CLOUDY    71  65  81 CALM      30.04R
CAMP DOUGLAS   NOT AVBL
$$

WIZ011>013-019>022-031-037>040-048>050-121500-
NORTHEAST WISCONSIN

CITY           SKY/WX    TMP DP  RH WIND       PRES   REMARKS
ANTIGO         CLOUDY    70  66  89 NW3       30.04S
STURGEON BAY   PTSUNNY   70  63  78 SW6       30.03S
GREEN BAY      CLOUDY    73  64  73 SW8       30.02F
MANITOWOC      CLOUDY    64  60  87 SE5       30.04S
APPLETON       CLOUDY    70  63  78 VRB3      30.04S
CLINTONVILLE   CLOUDY    70  63  78 S3        30.02S
OSHKOSH        CLOUDY    72  65  78 S3        30.03S
$$

WIZ032>034-041-042-053>061-121500-
SOUTHWEST WISCONSIN

CITY           SKY/WX    TMP DP  RH WIND       PRES   REMARKS
LA CROSSE      CLOUDY    73  68  84 S6        30.01S
SPARTA         CLOUDY    71  67  85 CALM      30.03F
VIROQUA        FAIR      70  70  99 CALM      30.03F
BOSCOBEL       CLOUDY    73  67  81 NE3       30.00F
PRAIRIE DU CHI LGT RAIN  72  67  86 CALM      29.99F
PLATTEVILLE    FAIR      69  67  94 E7        30.01F
$$

WIZ056-057-062-063-064-067-068-121500-
SOUTH CENTRAL WISCONSIN

CITY           SKY/WX    TMP DP  RH WIND       PRES   REMARKS
BARABOO/DELLS  CLOUDY    71  64  80 SW3       30.04S
LONE ROCK      CLOUDY    75  68  78 E3        30.02F
WATERTOWN      CLOUDY    72  66  82 SW3       30.04S
MADISON        CLOUDY    73  65  75 CALM      30.04S
MIDDLETON      CLOUDY    73  65  75 CALM      30.05S
MONROE         CLOUDY    70  64  83 NW3       30.03F
JANESVILLE     CLOUDY    73  66  78 SW7       30.05R
$$

WIZ051-052-058>065-066-070>072-121500-
SOUTHEAST WISCONSIN

CITY           SKY/WX    TMP DP  RH WIND       PRES   REMARKS
MILWAUKEE      CLOUDY    73  63  70 SW9       30.04S
WAUKESHA       CLOUDY    70  63  78 CALM      30.06R
MILWAUKEE/TIMM CLOUDY    73  63  68 SW3       30.04S
RACINE         PTSUNNY   72  66  81 S3        30.05S
BURLINGTON     PTSUNNY   71  66  84 SW7       30.05R
KENOSHA        CLOUDY    74  67  78 SW10      30.04S
FOND DU LAC    PTSUNNY   74  64  71 SW3       30.04S
SHEBOYGAN      CLOUDY    69  63  81 CALM      30.04S
WEST BEND      PTSUNNY   72  61  68 CALM      30.04S
JUNEAU         CLOUDY    70  49  46 CALM      30.05S
$$

LSZ147-162-121500-
LAKE SUPERIOR

STATION/POSITION TIME  TEMP    WIND        PRES    WAVE
                       AIR SEA DIR/SP/G            HT/PER
                 (UTC) (F)     (DEG/KT/KT) (MB)    (FT/S)
W MID LAKE BUOY  1350   45 38  290/  6/  6 1015.8R   0
PORT WING        1300   65     290/  4/  4 1016.3
SAXON HARBOR     1300           CALM  /  4 1015.9S
$$

LMZ867-665-643>646-121500-
LAKE MICHIGAN

STATION/POSITION TIME  TEMP    WIND        PRES    WAVE
                       AIR SEA DIR/SP/G            HT/PER
                 (UTC) (F)     (DEG/KT/KT) (MB)    (FT/S)
N MID LAKE BUOY  1350   57 55  200/ 12/ 14 1015.9R   2/ 4
NORTHPORT PIER   1300   69     230/  1/  6 1015.9F
KEWAUNEE LAKESHO 1400   53     160/ 10/ 11 1017.4S
SHEBOYGAN LAKESH 1400   64     150/  7/  7 1017.2F
PORT WASHINGTON  1300   64      CALM  /  1 1017.6S
MILWAUKEE LAKESH 1400   62      CALM  /  1   N/A
S MID LAKE BUOY  1350   63 60  150/ 12/ 12 1017.7S   1
KENOSHA   LAKESH 1400   66     180/  7/  9   N/A
$$

TC  - TEMPERATURE IN CELSIUS
VSB - VISIBILITY IN STATUTE MILES
WCI - WIND CHILL INDEX
HX  - HEAT INDEX




USA.gov is the U.S. government's official web portal to all federal, state and local government web resources and services.